KHYAKMVY

Guest
Details From KHYA - Barnstable Muni Boardman Polando Fld
To KMVY - Marthas Vineyard
Flight Number -
Tags Generated
Created
Modified
Stats Distance 22 nm / 42 km
Max Altitude 0 ft / 0 m
Waypoints 2
Social Downloads 0
Likes 0
Share VATSIM

Download

Looking for another format? Having issues loading an existing format? Contact us
Advertisement - Login to hide

Notes

Generated

Route

KHYA KMVY

ID Type Via Altitude Latitude Longitude Leg Dist Tot Dist Heading (true) Name
O KHYA APT - 0 ft / 0 m 41.66460˚ -70.28278˚ - 0 nm - -
O KMVY APT - 0 ft / 0 m 41.38763˚ -70.61791˚ 22 nm 22 nm 222° / 222° Marthas Vineyard

Altitude Profile

Advertisement - Login to hide

KHYA

Details ICAO KHYA (HYA)
Name Barnstable Muni Boardman Polando Fld
Region United States
Timezone America/New_York (UTC-4.0)
Stats Elevation 55 ft / 17 m (AMSL)
Location 41.669346° -70.280438°
Runways 2
Magnetic Variation 14.754° W

METAR

KHYA 262156Z 21008KT 9SM CLR 24/17 A2978 RMK AO2 SLP085 T02390167

Decode

TAF

TAF KHYA 261743Z 2618/2718 22013KT P6SM BKN250 FM270000 33005KT P6SM OVC130 FM270100 08010KT 6SM BR OVC100 FM270200 07007KT 4SM BR OVC060 FM270300 07007KT 4SM BR OVC020 FM270400 07008KT 3SM BR OVC010 FM270700 08010G19KT 3SM BR OVC003 FM271500 07013G25KT 3SM BR VCSH OVC008

Decode

Departure Runways

ID Width Length Bearing (true) Bearing (mag) Surface Threshold Offset Overrun Length
06 151 ft / 46 m 5,430 ft / 1,655 m 49.70° 64.45° Asphalt 407 ft / 124 m 289 ft / 88 m
15 151 ft / 46 m 5,257 ft / 1,602 m 139.88° 154.63° Asphalt 0 ft / 0 m 0 ft / 0 m
24 151 ft / 46 m 5,430 ft / 1,655 m 229.71° 244.46° Asphalt 0 ft / 0 m 0 ft / 0 m
33 151 ft / 46 m 5,257 ft / 1,602 m 319.88° 334.63° Asphalt 151 ft / 46 m 0 ft / 0 m

KMVY

Details ICAO KMVY (MVY)
Name Marthas Vineyard
Region United States
Timezone America/New_York (UTC-4.0)
Stats Elevation 68 ft / 21 m (AMSL)
Location 41.392961° -70.615852°
Runways 3
Magnetic Variation 14.558° W

METAR

KMVY 262153Z 19009KT 9SM CLR 19/16 A2981 RMK AO2 SLP093 T01890156

Decode

TAF

Not found

Destination Runways

ID Width Length Bearing (true) Bearing (mag) Surface Threshold Offset Overrun Length
01 75 ft / 23 m 3,182 ft / 970 m 355.64° 10.20° Asphalt 100 ft / 30 m 0 ft / 0 m
06 100 ft / 30 m 5,503 ft / 1,677 m 40.50° 55.06° Asphalt 300 ft / 91 m 0 ft / 0 m
15 75 ft / 23 m 3,294 ft / 1,004 m 130.72° 145.28° Asphalt 250 ft / 76 m 0 ft / 0 m
19 75 ft / 23 m 3,182 ft / 970 m 175.64° 190.20° Asphalt 100 ft / 30 m 0 ft / 0 m
24 100 ft / 30 m 5,503 ft / 1,677 m 220.51° 235.07° Asphalt 300 ft / 91 m 0 ft / 0 m
33 75 ft / 23 m 3,294 ft / 1,004 m 310.73° 325.29° Asphalt 250 ft / 76 m 0 ft / 0 m

Approach Navaids

Runway Type Ident Frequency Range Bearing (true) Bearing (mag) Slope Elevation
24 Localiser IMVY 108.70 MHz 18 nm / 33 km 220.48° 235.04° - 68 ft / 21 m (AMSL)
24 Glidescope IMVY 108.70 MHz 10 nm / 19 km 220.50° 235.06° 3.00° 61 ft / 19 m (AMSL)
24 DME IMVY 108.70 MHz 18 nm / 33 km - - - 68 ft / 21 m (AMSL)

Popular Alternatives